Flag for Kazakhstan Weather past 2 weeks in Almaty, Kazakhstan

32 °F

Ice fog.

Feels Like: 29 °F
Forecast: 24 / 47 °F
Wind: 3 mph from North

Location: Almaty Airport

Current Time: Nov 26, 2015 at 4:39:11 AM

Latest Report: Nov 26, 2015 at 4:00 AM

Visibility: 1 mi

Pressure: 30.33 "Hg (27.48 "Hg at 790m altitude)

Humidity: 87%

Dew point: 28 °F

Location of AlmatyLocation

Historic Weather in Almaty — Graph


Almaty temperature yesterday

Maximum temperature yesterday: 37 °F (at 3:00 PM)
Minimum temperature yesterday: 27 °F (at 3:30 AM)
Average temperature yesterday: 31 °F

Past Weeks' High & Low Weather Summary

High59 °F (Nov 11, 3:00 PM)100% (Nov 16, 2:00 AM)30.51 "Hg (Nov 16, 2:00 AM)
Low27 °F (Nov 24, 5:30 AM)26% (Nov 11, 11:30 AM)29.59 "Hg (Nov 12, 1:30 PM)
Average38 °F80%30.17 "Hg
* Reported Nov 11 3:00 AM — Nov 26 3:30 AM, Almaty, Weather by CustomWeather, © 2015

Note: Actual official high and low records may vary slightly from our data, if they occured in-between our weather recording intervals... More about our weather records


Almaty weather history for previous 24 hours

Time TempWeatherWind HumidityBarometerVisibility
3:30 AM
Thu, Nov 26
32 °FIce fog.1 mph87%30.33 "Hg1 mi
3:00 AM32 °FIce fog.1 mph93%30.33 "Hg1 mi
2:30 AM32 °FIce fog.1 mph93%30.33 "Hg1 mi
2:00 AM32 °FIce fog.1 mph93%30.33 "Hg1 mi
1:30 AM32 °FIce fog.1 mph93%30.33 "Hg1 mi
1:00 AM32 °FIce fog.1 mph93%30.33 "Hg1 mi
12:30 AM32 °FIce fog.3 mph93%30.33 "Hg1 mi
12:00 AM32 °FIce fog.3 mph93%30.36 "Hg1 mi
11:30 PM
Wed, Nov 25
32 °FIce fog.1 mph93%30.36 "Hg1 mi
11:00 PM32 °FIce fog.3 mph93%30.36 "Hg1 mi
10:30 PM32 °FIce fog.1 mph93%30.36 "Hg1 mi
10:00 PM32 °FIce fog.1 mph93%30.36 "Hg1 mi
9:30 PM32 °FIce fog.3 mph93%30.39 "Hg1 mi
9:00 PM32 °FIce fog.1 mph93%30.39 "Hg1 mi
8:30 PM32 °FIce fog.3 mph93%30.39 "Hg1 mi
8:00 PM32 °FIce fog.3 mph87%30.39 "Hg1 mi
7:30 PM32 °FIce fog.No wind87%30.39 "Hg1 mi
7:00 PM32 °FIce fog.3 mph87%30.39 "Hg1 mi
6:30 PM32 °FIce fog.3 mph87%30.39 "Hg1 mi
6:00 PM32 °FIce fog.3 mph87%30.39 "Hg1 mi
5:30 PM32 °FIce fog.3 mph87%30.39 "Hg1 mi
5:00 PM34 °FFog.6 mph81%30.36 "Hg2 mi
4:30 PM37 °FFog.1 mph70%30.36 "Hg2 mi
4:00 PM37 °FFog.3 mph70%30.36 "Hg2 mi
3:30 PM37 °FFog.1 mph70%30.36 "Hg2 mi
3:00 PM37 °FFog.6 mph70%30.36 "Hg2 mi
2:30 PM36 °FFog.3 mph81%30.36 "Hg2 mi
2:00 PM36 °FFog.3 mph81%30.39 "Hg1 mi
1:30 PM34 °FFog.6 mph87%30.39 "Hg1 mi
1:00 PM34 °FFog.3 mph87%30.39 "Hg1 mi
12:30 PM32 °FIce fog.1 mph93%30.42 "Hg1 mi
12:00 PM32 °FIce fog.3 mph93%30.42 "Hg1 mi
11:30 AM32 °FIce fog.1 mph93%30.42 "Hg1 mi
11:00 AM32 °FIce fog.1 mph93%30.42 "Hg1 mi
10:30 AM32 °FIce fog.1 mph93%30.42 "Hg1 mi
10:00 AM30 °FIce fog.1 mph93%30.42 "Hg2 mi
9:30 AM30 °FIce fog.No wind93%30.42 "Hg1 mi
9:00 AM28 °FIce fog.1 mph93%30.42 "Hg1 mi
8:30 AM27 °FIce fog.1 mph93%30.42 "Hg1 mi
8:00 AM27 °FIce fog.3 mph93%30.42 "Hg1 mi
7:30 AM27 °FIce fog.No wind93%30.42 "Hg1 mi
7:00 AM27 °FIce fog.No wind93%30.42 "Hg1 mi
6:00 AM28 °FIce fog.6 mph93%30.42 "Hg2 mi
5:30 AM28 °FIce fog.6 mph93%30.42 "Hg2 mi
5:00 AM28 °FIce fog.3 mph93%30.42 "Hg2 mi
4:30 AM28 °FIce fog.3 mph86%30.42 "Hg2 mi
4:00 AM27 °FIce fog.1 mph93%30.42 "Hg1 mi
Weather by CustomWeather, © 2015

See weather overviewHow to use our weather pages